User: anonymous   Login
Location: Newark
(49.1000°N, 0.4667°W)
Time: 03:16:43
(UTC+00:00)
Language:

XW-2D - Orbit

View from above orbital plane
View from above orbital plane
View from above satellite
View from above satellite

Ground track
Ground track

The orbit data is extracted from the following two-line orbital elements,

1 40907U 15049J   21289.84558166  .00002470  00000-0  12655-3 0  9999
2 40907  97.4899 290.5703 0015186 118.5199   1.8201 15.17427883336009
Epoch (UTC): 16 October 2021 20:17:38
Eccentricity: 0.0015186
inclination: 97.4899°
perigee height: 503 km
apogee height: 524 km
right ascension of ascending node: 290.5703°
argument of perigee: 118.5199°
revolutions per day: 15.17427883
mean anomaly at epoch: 1.8201°
orbit number at epoch: 33600

The dashed part of the orbit path shows where the satellite is in the earth's shadow,  

DLR